| time (UTC) | temp F | wind direction | speed knots | gust knots | rain 1hr in | rain 24hr in | rain mn in | humidity % | barometer mb |
| 20260506224006 | 64 | 301 | 15.6 | 24.3 | 0.00 | 0.00 | 0.00 | 25 | 1011.6 |
| 20260506222506 | 63 | 284 | 17.4 | 26.1 | 0.00 | 0.00 | 0.00 | 25 | 1012.1 |
| 20260506222007 | 63 | 288 | 14.8 | 26.1 | 0.00 | 0.00 | 0.00 | 26 | 1012.1 |
| 20260506221506 | 63 | 290 | 14.8 | 26.1 | 0.00 | 0.00 | 0.00 | 26 | 1012.2 |
| 20260506221006 | 63 | 281 | 15.6 | 25.2 | 0.00 | 0.00 | 0.00 | 25 | 1012.4 |
| 20260506220006 | 63 | 296 | 18.2 | 25.2 | 0.00 | 0.00 | 0.00 | 26 | 1012.4 |
| 20260506215506 | 63 | 275 | 14.8 | 25.2 | 0.00 | 0.00 | 0.00 | 26 | 1012.5 |
| 20260506215007 | 63 | 277 | 15.6 | 25.2 | 0.00 | 0.00 | 0.00 | 27 | 1012.5 |
| 20260506214506 | 62 | 276 | 15.6 | 26.9 | 0.00 | 0.00 | 0.00 | 26 | 1012.6 |
| 20260506214006 | 62 | 292 | 18.2 | 26.9 | 0.00 | 0.00 | 0.00 | 27 | 1012.7 |
| 20260506213506 | 62 | 305 | 18.2 | 22.6 | 0.00 | 0.00 | 0.00 | 28 | 1012.7 |
| 20260506213006 | 62 | 275 | 16.5 | 25.2 | 0.00 | 0.00 | 0.00 | 28 | 1012.8 |
| 20260506212506 | 62 | 286 | 16.5 | 25.2 | 0.00 | 0.00 | 0.00 | 28 | 1013.0 |
| 20260506212006 | 61 | 285 | 15.6 | 22.6 | 0.00 | 0.00 | 0.00 | 29 | 1012.9 |
| 20260506211006 | 61 | 284 | 17.4 | 22.6 | 0.00 | 0.00 | 0.00 | 27 | 1013.3 |
| 20260506210006 | 60 | 300 | 13.9 | 21.7 | 0.00 | 0.00 | 0.00 | 27 | 1013.4 |
| 20260506205506 | 60 | 272 | 13.9 | 25.2 | 0.00 | 0.00 | 0.00 | 27 | 1013.6 |
| 20260506204506 | 60 | 297 | 13.9 | 25.2 | 0.00 | 0.00 | 0.00 | 28 | 1013.8 |
| 20260506204006 | 59 | 249 | 13.9 | 22.6 | 0.00 | 0.00 | 0.00 | 28 | 1013.9 |
| 20260506203506 | 59 | 287 | 14.8 | 22.6 | 0.00 | 0.00 | 0.00 | 28 | 1014.1 |
| 20260506203006 | 59 | 261 | 15.6 | 22.6 | 0.00 | 0.00 | 0.00 | 27 | 1014.2 |
| 20260506202505 | 59 | 266 | 13.9 | 22.6 | 0.00 | 0.00 | 0.00 | 27 | 1014.3 |
| 20260506202006 | 58 | 270 | 13.9 | 20.9 | 0.00 | 0.00 | 0.00 | 28 | 1014.3 |
| 20260506201505 | 58 | 268 | 13.9 | 22.6 | 0.00 | 0.00 | 0.00 | 26 | 1014.5 |
| 20260506201006 | 58 | 251 | 16.5 | 22.6 | 0.00 | 0.00 | 0.00 | 27 | 1014.5 |
| 20260506200006 | 58 | 262 | 13.9 | 20.0 | 0.00 | 0.00 | 0.00 | 27 | 1014.7 |
| 20260506195506 | 57 | 288 | 11.3 | 22.6 | 0.00 | 0.00 | 0.00 | 29 | 1014.8 |
| 20260506195006 | 57 | 252 | 13.9 | 22.6 | 0.00 | 0.00 | 0.00 | 27 | 1014.9 |
| 20260506194506 | 57 | 279 | 14.8 | 22.6 | 0.00 | 0.00 | 0.00 | 28 | 1015.0 |
| 20260506194006 | 56 | 261 | 13.0 | 22.6 | 0.00 | 0.00 | 0.00 | 28 | 1015.0 |
| 20260506193506 | 56 | 276 | 17.4 | 22.6 | 0.00 | 0.00 | 0.00 | 28 | 1015.3 |
| 20260506193006 | 56 | 263 | 12.2 | 24.3 | 0.00 | 0.01 | 0.00 | 29 | 1015.4 |
| 20260506192506 | 56 | 274 | 15.6 | 24.3 | 0.00 | 0.01 | 0.00 | 28 | 1015.5 |
| 20260506192006 | 56 | 285 | 14.8 | 24.3 | 0.00 | 0.01 | 0.00 | 29 | 1015.4 |
| 20260506191506 | 55 | 276 | 15.6 | 22.6 | 0.00 | 0.01 | 0.00 | 28 | 1015.4 |
| 20260506191006 | 54 | 269 | 16.5 | 22.6 | 0.00 | 0.01 | 0.00 | 28 | 1015.7 |
| 20260506190006 | 54 | 275 | 14.8 | 22.6 | 0.00 | 0.01 | 0.00 | 29 | 1015.8 |
| 20260506185506 | 54 | 274 | 15.6 | 24.3 | 0.00 | 0.01 | 0.00 | 29 | 1015.8 |
| 20260506185006 | 54 | 241 | 13.9 | 24.3 | 0.00 | 0.01 | 0.00 | 30 | 1016.0 |
| 20260506184506 | 54 | 274 | 14.8 | 21.7 | 0.00 | 0.01 | 0.00 | 30 | 1016.1 |
| 20260506183006 | 53 | 238 | 14.8 | 22.6 | 0.00 | 0.01 | 0.00 | 30 | 1016.2 |
| 20260506182506 | 52 | 267 | 13.9 | 21.7 | 0.00 | 0.01 | 0.00 | 31 | 1016.4 |
| 20260506182005 | 52 | 257 | 12.2 | 22.6 | 0.00 | 0.01 | 0.00 | 34 | 1016.5 |
| 20260506181506 | 51 | 263 | 14.8 | 24.3 | 0.00 | 0.01 | 0.00 | 30 | 1016.6 |
| 20260506181006 | 51 | 252 | 14.8 | 24.3 | 0.00 | 0.01 | 0.00 | 32 | 1016.7 |
| 20260506180006 | 51 | 260 | 15.6 | 22.6 | 0.00 | 0.01 | 0.00 | 32 | 1016.9 |
| 20260506175506 | 50 | 262 | 14.8 | 22.6 | 0.00 | 0.01 | 0.00 | 32 | 1017.1 |
| 20260506175006 | 50 | 251 | 15.6 | 22.6 | 0.00 | 0.01 | 0.00 | 31 | 1017.1 |
| 20260506174506 | 50 | 249 | 14.8 | 22.6 | 0.00 | 0.01 | 0.00 | 33 | 1017.2 |
| 20260506174005 | 49 | 256 | 14.8 | 22.6 | 0.00 | 0.01 | 0.00 | 31 | 1017.4 |
| 20260506173506 | 49 | 264 | 13.9 | 22.6 | 0.00 | 0.01 | 0.00 | 31 | 1017.5 |
| 20260506173007 | 49 | 261 | 14.8 | 22.6 | 0.00 | 0.01 | 0.00 | 31 | 1017.5 |
| 20260506172506 | 49 | 275 | 14.8 | 22.6 | 0.00 | 0.01 | 0.00 | 32 | 1017.6 |
| 20260506172006 | 48 | 265 | 16.5 | 22.6 | 0.00 | 0.01 | 0.00 | 31 | 1017.6 |
| 20260506171506 | 48 | 254 | 16.5 | 22.6 | 0.00 | 0.01 | 0.00 | 31 | 1017.7 |
| 20260506170005 | 48 | 250 | 13.9 | 22.6 | 0.00 | 0.01 | 0.00 | 34 | 1017.8 |
| 20260506165506 | 48 | 254 | 16.5 | 22.6 | 0.00 | 0.01 | 0.00 | 31 | 1018.0 |
| 20260506165006 | 48 | 281 | 14.8 | 20.0 | 0.00 | 0.01 | 0.00 | 33 | 1018.0 |
| 20260506164006 | 47 | 280 | 14.8 | 20.0 | 0.00 | 0.01 | 0.00 | 33 | 1018.1 |
| 20260506163506 | 47 | 268 | 13.0 | 17.4 | 0.00 | 0.01 | 0.00 | 35 | 1018.1 |
| 20260506163006 | 46 | 275 | 11.3 | 18.2 | 0.00 | 0.01 | 0.00 | 38 | 1018.3 |
| 20260506162506 | 46 | 265 | 12.2 | 18.2 | 0.00 | 0.01 | 0.00 | 38 | 1018.4 |
| 20260506162006 | 45 | 260 | 13.9 | 22.6 | 0.00 | 0.01 | 0.00 | 38 | 1018.5 |
| 20260506161006 | 44 | 254 | 13.9 | 22.6 | 0.00 | 0.01 | 0.00 | 41 | 1018.6 |
| 20260506160005 | 44 | 255 | 12.2 | 17.4 | 0.00 | 0.01 | 0.00 | 45 | 1018.7 |
| 20260506155506 | 43 | 266 | 12.2 | 17.4 | 0.00 | 0.01 | 0.00 | 45 | 1018.7 |
| 20260506155006 | 43 | 276 | 13.9 | 17.4 | 0.00 | 0.01 | 0.00 | 43 | 1018.7 |
| 20260506154506 | 43 | 268 | 12.2 | 20.0 | 0.00 | 0.01 | 0.00 | 47 | 1018.8 |
| 20260506154007 | 42 | 264 | 12.2 | 20.0 | 0.00 | 0.01 | 0.00 | 47 | 1018.8 |
| 20260506153506 | 42 | 259 | 12.2 | 18.2 | 0.00 | 0.01 | 0.00 | 47 | 1018.9 |
| 20260506153006 | 42 | 257 | 11.3 | 15.6 | 0.00 | 0.01 | 0.00 | 48 | 1018.8 |
| 20260506152506 | 42 | 267 | 10.4 | 14.8 | 0.00 | 0.01 | 0.00 | 51 | 1018.9 |
| 20260506151505 | 41 | 255 | 11.3 | 14.8 | 0.00 | 0.01 | 0.00 | 49 | 1018.9 |
| 20260506151006 | 41 | 255 | 8.7 | 14.8 | 0.00 | 0.01 | 0.00 | 53 | 1019.0 |
| 20260506150005 | 39 | 258 | 8.7 | 12.2 | 0.00 | 0.01 | 0.00 | 59 | 1019.1 |
| 20260506145506 | 39 | 260 | 7.8 | 10.4 | 0.00 | 0.01 | 0.00 | 62 | 1019.2 |
| 20260506144006 | 37 | 271 | 7.8 | 12.2 | 0.00 | 0.01 | 0.00 | 66 | 1019.4 |
| 20260506143506 | 37 | 273 | 8.7 | 12.2 | 0.00 | 0.01 | 0.00 | 66 | 1019.5 |
| 20260506142505 | 36 | 258 | 6.1 | 10.4 | 0.00 | 0.01 | 0.00 | 67 | 1019.5 |
| 20260506142006 | 36 | 272 | 7.8 | 8.7 | 0.00 | 0.01 | 0.00 | 68 | 1019.6 |
| 20260506141506 | 36 | 248 | 6.1 | 8.7 | 0.00 | 0.01 | 0.00 | 69 | 1019.6 |
| 20260506141006 | 35 | 250 | 6.1 | 8.7 | 0.00 | 0.01 | 0.00 | 67 | 1019.6 |
| 20260506140006 | 34 | 234 | 4.3 | 6.1 | 0.00 | 0.01 | 0.00 | 68 | 1019.7 |
| 20260506135512 | 34 | 237 | 4.3 | 7.8 | 0.00 | 0.01 | 0.00 | 69 | 1019.7 |
| 20260506135006 | 33 | 234 | 5.2 | 8.7 | 0.00 | 0.01 | 0.00 | 68 | 1019.8 |
| 20260506134506 | 33 | 231 | 6.1 | 8.7 | 0.00 | 0.01 | 0.00 | 68 | 1019.8 |
| 20260506134006 | 33 | 227 | 5.2 | 8.7 | 0.00 | 0.01 | 0.00 | 69 | 1019.8 |
| 20260506133506 | 32 | 211 | 5.2 | 8.7 | 0.00 | 0.01 | 0.00 | 69 | 1019.9 |
| 20260506133006 | 32 | 232 | 6.1 | 8.7 | 0.00 | 0.01 | 0.00 | 70 | 1019.8 |
| 20260506132506 | 32 | 231 | 6.1 | 8.7 | 0.00 | 0.01 | 0.00 | 71 | 1019.8 |
| 20260506132006 | 31 | 233 | 7.0 | 8.7 | 0.00 | 0.01 | 0.00 | 71 | 1019.8 |
| 20260506131506 | 31 | 227 | 5.2 | 7.8 | 0.00 | 0.01 | 0.00 | 72 | 1019.8 |
| 20260506131006 | 31 | 212 | 4.3 | 8.7 | 0.00 | 0.01 | 0.00 | 73 | 1019.8 |
| 20260506130006 | 30 | 204 | 6.1 | 8.7 | 0.00 | 0.01 | 0.00 | 73 | 1019.8 |
| 20260506125506 | 30 | 218 | 5.2 | 8.7 | 0.00 | 0.01 | 0.00 | 74 | 1019.7 |
| 20260506125006 | 30 | 208 | 5.2 | 7.8 | 0.00 | 0.01 | 0.00 | 74 | 1019.7 |
| 20260506124505 | 29 | 223 | 4.3 | 8.7 | 0.00 | 0.01 | 0.00 | 75 | 1019.8 |
| 20260506124006 | 29 | 208 | 5.2 | 8.7 | 0.00 | 0.01 | 0.00 | 75 | 1019.8 |
| 20260506123506 | 29 | 207 | 5.2 | 7.8 | 0.00 | 0.01 | 0.00 | 76 | 1019.8 |
| 20260506123006 | 28 | 208 | 5.2 | 7.8 | 0.00 | 0.01 | 0.00 | 77 | 1019.8 |
| 20260506122505 | 28 | 230 | 5.2 | 7.0 | 0.00 | 0.01 | 0.00 | 78 | 1019.8 |
| 20260506122006 | 28 | 237 | 5.2 | 7.0 | 0.00 | 0.01 | 0.00 | 78 | 1019.8 |
| 20260506121506 | 27 | 240 | 5.2 | 7.0 | 0.00 | 0.01 | 0.00 | 78 | 1019.7 |
| 20260506121006 | 27 | 234 | 5.2 | 7.0 | 0.00 | 0.01 | 0.00 | 78 | 1019.7 |
| 20260506120005 | 27 | 231 | 5.2 | 6.1 | 0.00 | 0.01 | 0.00 | 78 | 1019.8 |
| 20260506115505 | 28 | 235 | 4.3 | 6.1 | 0.00 | 0.01 | 0.00 | 78 | 1019.7 |
| 20260506115006 | 28 | 233 | 4.3 | 7.0 | 0.00 | 0.01 | 0.00 | 77 | 1019.7 |
| 20260506114006 | 28 | 234 | 5.2 | 7.0 | 0.00 | 0.01 | 0.00 | 77 | 1019.7 |
| 20260506113506 | 28 | 231 | 5.2 | 7.0 | 0.00 | 0.01 | 0.00 | 77 | 1019.7 |
| 20260506113006 | 29 | 233 | 4.3 | 7.0 | 0.00 | 0.01 | 0.00 | 77 | 1019.7 |
| 20260506112505 | 29 | 230 | 4.3 | 6.1 | 0.00 | 0.01 | 0.00 | 77 | 1019.8 |
| 20260506112006 | 29 | 217 | 4.3 | 6.1 | 0.00 | 0.01 | 0.00 | 77 | 1019.8 |
| 20260506111505 | 29 | 216 | 4.3 | 7.0 | 0.00 | 0.01 | 0.00 | 77 | 1019.8 |
| 20260506111006 | 29 | 231 | 5.2 | 7.0 | 0.00 | 0.01 | 0.00 | 77 | 1019.8 |
| 20260506110005 | 29 | 211 | 5.2 | 8.7 | 0.00 | 0.01 | 0.00 | 78 | 1019.8 |
| 20260506105506 | 29 | 205 | 6.1 | 7.8 | 0.00 | 0.01 | 0.00 | 78 | 1019.9 |
| 20260506105006 | 29 | 203 | 5.2 | 7.8 | 0.00 | 0.01 | 0.00 | 78 | 1019.9 |
| 20260506104505 | 29 | 210 | 5.2 | 10.4 | 0.00 | 0.01 | 0.00 | 78 | 1019.9 |
| 20260506104006 | 29 | 206 | 5.2 | 10.4 | 0.00 | 0.01 | 0.00 | 78 | 1019.9 |
| 20260506103506 | 29 | 203 | 7.0 | 10.4 | 0.00 | 0.01 | 0.00 | 78 | 1019.9 |
| 20260506103006 | 30 | 204 | 6.1 | 8.7 | 0.00 | 0.01 | 0.00 | 78 | 1019.9 |
| 20260506102506 | 29 | 207 | 5.2 | 8.7 | 0.00 | 0.01 | 0.00 | 79 | 1019.9 |
| 20260506102006 | 29 | 207 | 5.2 | 8.7 | 0.00 | 0.01 | 0.00 | 80 | 1019.9 |
| 20260506101505 | 29 | 200 | 6.1 | 8.7 | 0.00 | 0.01 | 0.00 | 80 | 1019.9 |
| 20260506101006 | 30 | 217 | 4.3 | 6.1 | 0.00 | 0.01 | 0.00 | 80 | 1019.9 |
| 20260506100006 | 30 | 218 | 4.3 | 7.0 | 0.00 | 0.01 | 0.00 | 80 | 1019.9 |
| 20260506094506 | 30 | 200 | 5.2 | 7.8 | 0.00 | 0.01 | 0.00 | 79 | 1020.0 |
| 20260506094006 | 30 | 211 | 4.3 | 7.0 | 0.00 | 0.01 | 0.00 | 79 | 1020.0 |
| 20260506093506 | 30 | 206 | 4.3 | 7.0 | 0.00 | 0.01 | 0.00 | 80 | 1020.0 |
| 20260506093006 | 30 | 215 | 4.3 | 6.1 | 0.00 | 0.01 | 0.00 | 81 | 1020.1 |
| 20260506092505 | 30 | 212 | 4.3 | 6.1 | 0.00 | 0.01 | 0.00 | 81 | 1020.1 |
| 20260506092005 | 31 | 217 | 4.3 | 6.1 | 0.00 | 0.01 | 0.00 | 81 | 1020.1 |
| 20260506091505 | 31 | 239 | 4.3 | 6.1 | 0.00 | 0.01 | 0.00 | 81 | 1020.1 |
| 20260506085505 | 30 | 224 | 4.3 | 6.1 | 0.00 | 0.01 | 0.00 | 83 | 1020.1 |
| 20260506084505 | 30 | 214 | 2.6 | 6.1 | 0.00 | 0.01 | 0.00 | 83 | 1020.1 |
| 20260506084005 | 30 | 203 | 4.3 | 6.1 | 0.00 | 0.01 | 0.00 | 82 | 1020.1 |
| 20260506083505 | 30 | 207 | 3.5 | 6.1 | 0.00 | 0.01 | 0.00 | 82 | 1020.1 |
| 20260506083006 | 30 | 240 | 4.3 | 5.2 | 0.00 | 0.01 | 0.00 | 82 | 1020.1 |
| 20260506082505 | 30 | 233 | 4.3 | 7.0 | 0.00 | 0.01 | 0.00 | 81 | 1020.1 |
| 20260506082006 | 31 | 239 | 4.3 | 7.0 | 0.00 | 0.01 | 0.00 | 80 | 1020.1 |
| 20260506081506 | 31 | 249 | 6.1 | 7.8 | 0.00 | 0.01 | 0.00 | 81 | 1020.1 |
| 20260506081006 | 31 | 244 | 4.3 | 7.8 | 0.00 | 0.01 | 0.00 | 82 | 1020.1 |
| 20260506073505 | 30 | 236 | 4.3 | 4.3 | 0.00 | 0.01 | 0.00 | 83 | 1020.1 |
| 20260506073005 | 31 | 233 | 2.6 | 4.3 | 0.00 | 0.01 | 0.00 | 82 | 1020.2 |
| 20260506072506 | 31 | 237 | 4.3 | 4.3 | 0.00 | 0.01 | 0.00 | 82 | 1020.2 |
| 20260506072005 | 31 | 233 | 4.3 | 4.3 | 0.00 | 0.01 | 0.00 | 83 | 1020.2 |
| 20260506071505 | 31 | 237 | 2.6 | 2.6 | 0.00 | 0.01 | 0.00 | 84 | 1020.2 |
| 20260506071006 | 31 | 238 | 1.7 | 4.3 | 0.00 | 0.01 | 0.00 | 84 | 1020.2 |
| 20260506062505 | 31 | 250 | 1.7 | 4.3 | 0.00 | 0.01 | 0.00 | 82 | 1020.4 |
| 20260506062005 | 32 | 251 | 2.6 | 7.0 | 0.00 | 0.01 | 0.00 | 81 | 1020.4 |
| 20260506061505 | 32 | 247 | 4.3 | 7.0 | 0.00 | 0.01 | 0.00 | 80 | 1020.4 |
| 20260506061006 | 33 | 209 | 2.6 | 7.8 | 0.00 | 0.01 | 0.00 | 80 | 1020.2 |
| 20260506051006 | 33 | 224 | 4.3 | 7.0 | 0.00 | 0.01 | 0.01 | 82 | 1020.0 |
| 20260506044505 | 34 | 213 | 4.3 | 5.2 | 0.00 | 0.01 | 0.01 | 81 | 1020.1 |
| 20260506044005 | 34 | 203 | 2.6 | 5.2 | 0.00 | 0.01 | 0.01 | 81 | 1020.1 |
| 20260506043505 | 34 | 199 | 4.3 | 6.1 | 0.00 | 0.01 | 0.01 | 81 | 1020.1 |
| 20260506043005 | 34 | 199 | 4.3 | 6.1 | 0.00 | 0.01 | 0.01 | 81 | 1020.1 |
| 20260506042505 | 33 | 197 | 4.3 | 5.2 | 0.00 | 0.01 | 0.01 | 81 | 1020.1 |
| 20260506042005 | 33 | 195 | 4.3 | 5.2 | 0.00 | 0.01 | 0.01 | 79 | 1020.1 |
| 20260506041505 | 34 | 196 | 4.3 | 4.3 | 0.00 | 0.01 | 0.01 | 78 | 1020.0 |
| 20260506041006 | 34 | 217 | 2.6 | 4.3 | 0.00 | 0.01 | 0.01 | 77 | 1020.0 |
| 20260506040005 | 34 | 295 | 0.9 | 2.6 | 0.00 | 0.01 | 0.01 | 74 | 1020.0 |
| 20260506035505 | 35 | 279 | 1.7 | 2.6 | 0.00 | 0.01 | 0.01 | 75 | 1019.9 |
| 20260506035005 | 35 | 282 | 1.7 | 2.6 | 0.00 | 0.01 | 0.01 | 76 | 1019.9 |
| 20260506034506 | 35 | 274 | 2.6 | 2.6 | 0.00 | 0.01 | 0.01 | 76 | 1019.9 |
| 20260506034006 | 35 | 280 | 2.6 | 2.6 | 0.00 | 0.01 | 0.01 | 76 | 1019.9 |
| 20260506033505 | 35 | 281 | 1.7 | 2.6 | 0.00 | 0.01 | 0.01 | 76 | 1019.8 |
| 20260506031005 | 35 | 319 | 0.9 | 2.6 | 0.00 | 0.01 | 0.01 | 73 | 1019.5 |
| 20260506030005 | 36 | 326 | 0.0 | 1.7 | 0.00 | 0.01 | 0.01 | 71 | 1019.4 |
| 20260506025505 | 36 | 323 | 0.0 | 2.6 | 0.00 | 0.01 | 0.01 | 71 | 1019.4 |
| 20260506024505 | 36 | 331 | 1.7 | 5.2 | 0.00 | 0.01 | 0.01 | 71 | 1019.1 |
| 20260506023505 | 37 | 323 | 2.6 | 5.2 | 0.00 | 0.01 | 0.01 | 68 | 1019.0 |
| 20260506022505 | 38 | 343 | 4.3 | 5.2 | 0.00 | 0.01 | 0.01 | 64 | 1018.8 |
| 20260506022006 | 38 | 5 | 2.6 | 5.2 | 0.00 | 0.01 | 0.01 | 60 | 1018.7 |
| 20260506021505 | 38 | 8 | 2.6 | 7.8 | 0.00 | 0.01 | 0.01 | 60 | 1018.7 |
| 20260506021005 | 39 | 11 | 4.3 | 10.4 | 0.00 | 0.01 | 0.01 | 60 | 1018.6 |
| 20260506020005 | 39 | 351 | 6.1 | 10.4 | 0.00 | 0.01 | 0.01 | 59 | 1018.5 |
| 20260506015505 | 39 | 2 | 6.1 | 11.3 | 0.00 | 0.01 | 0.01 | 58 | 1018.4 |
| 20260506014505 | 39 | 358 | 7.0 | 14.8 | 0.00 | 0.01 | 0.01 | 58 | 1018.2 |
| 20260506014005 | 39 | 355 | 8.7 | 15.6 | 0.00 | 0.01 | 0.01 | 58 | 1018.1 |
| 20260506013005 | 40 | 359 | 9.6 | 13.0 | 0.00 | 0.01 | 0.01 | 57 | 1018.1 |
| 20260506012505 | 41 | 5 | 5.2 | 11.3 | 0.00 | 0.01 | 0.01 | 55 | 1018.1 |
| 20260506012005 | 41 | 357 | 6.1 | 10.4 | 0.00 | 0.01 | 0.01 | 56 | 1018.0 |
| 20260506011505 | 41 | 13 | 2.6 | 10.4 | 0.00 | 0.01 | 0.01 | 59 | 1017.9 |
| 20260506011005 | 41 | 2 | 4.3 | 10.4 | 0.00 | 0.01 | 0.01 | 58 | 1017.8 |
| 20260506010005 | 42 | 20 | 5.2 | 8.7 | 0.00 | 0.01 | 0.01 | 59 | 1017.7 |
| 20260506005505 | 41 | 9 | 5.2 | 8.7 | 0.00 | 0.01 | 0.01 | 60 | 1017.8 |
| 20260506005005 | 41 | 2 | 4.3 | 7.8 | 0.00 | 0.01 | 0.01 | 62 | 1017.7 |
| 20260506004506 | 41 | 358 | 2.6 | 7.8 | 0.00 | 0.01 | 0.01 | 63 | 1017.7 |
| 20260506004006 | 41 | 290 | 3.5 | 7.8 | 0.00 | 0.01 | 0.01 | 65 | 1017.7 |
| 20260506003505 | 40 | 329 | 1.7 | 7.8 | 0.00 | 0.01 | 0.01 | 66 | 1017.6 |
| 20260506002505 | 39 | 336 | 4.3 | 10.4 | 0.00 | 0.01 | 0.01 | 68 | 1017.6 |
| 20260506001505 | 39 | 332 | 4.3 | 8.7 | 0.00 | 0.01 | 0.01 | 70 | 1017.6 |
| 20260506001005 | 39 | 328 | 5.2 | 8.7 | 0.00 | 0.01 | 0.01 | 71 | 1017.5 |
| 20260506000005 | 38 | 320 | 5.2 | 15.6 | 0.00 | 0.01 | 0.01 | 74 | 1017.6 |
| 20260505235505 | 37 | 336 | 7.8 | 15.6 | 0.00 | 0.01 | 0.01 | 74 | 1017.7 |
| 20260505234505 | 37 | 331 | 9.6 | 13.0 | 0.00 | 0.01 | 0.01 | 75 | 1017.5 |
| 20260505234005 | 37 | 338 | 8.7 | 13.9 | 0.00 | 0.01 | 0.01 | 76 | 1017.5 |
| 20260505233005 | 36 | 335 | 10.4 | 19.1 | 0.00 | 0.01 | 0.01 | 79 | 1017.3 |
| 20260505232505 | 36 | 347 | 10.4 | 20.0 | 0.00 | 0.01 | 0.01 | 79 | 1017.2 |
| 20260505232005 | 36 | 346 | 15.6 | 20.9 | 0.00 | 0.01 | 0.01 | 78 | 1017.2 |
| 20260505231505 | 37 | 352 | 13.9 | 20.9 | 0.00 | 0.01 | 0.01 | 74 | 1017.0 |
| 20260505231005 | 41 | 347 | 12.2 | 17.4 | 0.00 | 0.01 | 0.01 | 65 | 1017.0 |
| 20260505230005 | 43 | 195 | 4.3 | 6.1 | 0.00 | 0.01 | 0.01 | 61 | 1016.1 |
| 20260505225005 | 43 | 189 | 3.5 | 10.4 | 0.00 | 0.01 | 0.01 | 59 | 1016.1 |
| 20260505224505 | 44 | 192 | 5.2 | 10.4 | 0.00 | 0.01 | 0.01 | 61 | 1016.1 |